Hourly Weather Roundup
Issued by NWS Central Illinois

Home | Current Version | Previous Version | Text Only | Print | Product List | Glossary On
Versions: 1 2 3 4 5 6 7 8 9 10 11 12 13 14 15 16 17 18 19 20 21 22 23 24 25 26 27 28 29 30 31 32 33 34 35 36 37 38 39 40 41 42 43 44 45 46 47 48 49 50
640
NZUS43 KILX 291710
HWRILX

AREA WEATHER ROUNDUP
NATIONAL WEATHER SERVICE, LINCOLN IL
1200 PM CDT MON AUG 29 2016


CITY           SKY/WX    TMP DP  RH WIND       PRES   REMARKS
BLOOMINGTON    MOSUNNY   85  75  72 E5        30.25S HX  93
CHAMPAIGN      SUNNY     83  72  69 E5        30.25S HX  88
DANVILLE       SUNNY     82  73  74 SE3       30.23S HX  88
DECATUR        SUNNY     85  72  65 VRB7      30.24S HX  91
EFFINGHAM      SUNNY     85  75  72 CALM      30.24F HX  92
FLORA          SUNNY     86  74  67 SE3       30.22F HX  94
GALESBURG      SUNNY     86  75  69 CALM      30.23S HX  94
JACKSONVILLE   MOSUNNY   87  76  69 CALM      30.22S HX  97
LACON          PTSUNNY   82  74  76 CALM      30.23F HX  88
LAWRENCEVILLE  SUNNY     86  70  58 VRB5      30.22F HX  90
LITCHFIELD     SUNNY     91  74  57 CALM      30.22F HX 100
$$


CITY           SKY/WX    TMP DP  RH WIND       PRES   REMARKS
LINCOLN        SUNNY     89  75  63 SE5       30.23S HX  99
MACOMB         MOSUNNY   84  76  76 SE3       30.25S HX  93
MATTOON        SUNNY     83  69  62 SE7       30.23F HX  86
MT CARMEL AP   SUNNY     86  68  53 CALM      30.21F HX  89
OLNEY-NOBLE AP SUNNY     84  70  61 E3        30.23S HX  88
PARIS          SUNNY     84  73  69 CALM      30.24F HX  90
PEORIA         PTSUNNY   85  75  72 E6        30.23S HX  93
PONTIAC        SUNNY     85  77  78 E5        30.25S HX  95
RANTOUL        SUNNY     84  73  68 SE7       30.25S HX  90
ROBINSON       SUNNY     84  72  66 E3        30.23F HX  90
SPRINGFIELD    SUNNY     88  72  58 SE3       30.23S HX  94
TAYLORVILLE    SUNNY     85  74  70 E5        30.23S HX  93
$$

...REGIONAL REPORTS...


CITY           SKY/WX    TMP DP  RH WIND       PRES   REMARKS
CHICAGO O`HARE PTSUNNY   83  72  69 SE7       30.24F HX  88
KANKAKEE       MOSUNNY   83  73  70 SE6       30.25F HX  89
MOLINE         SUNNY     84  73  69 E7        30.23S HX  90
MOUNT STERLING MOSUNNY   86  75  71 SE5       30.22F HX  95
MOUNT VERNON   SUNNY     88  70  55 SE6       30.21F HX  92
PITTSFIELD     SUNNY     87  76  69 CALM      30.23S HX  98
QUINCY         CLOUDY    88  73  61 CALM      30.21F THUNDER HX  95
ROCKFORD       CLOUDY    84  71  65 SE8       30.26S HX  89
$$


CITY           SKY/WX    TMP DP  RH WIND       PRES   REMARKS
BURLINGTON     SUNNY     84  76  76 S3        30.22S HX  93
CEDAR RAPIDS   CLOUDY    77  74  90 SE3       30.24S
DES MOINES     CLOUDY    79  73  82 E6        30.22S HX  82
KIRKSVILLE     MOSUNNY   85  75  72 VRB3      30.24R HX  93
OTTUMWA        MOSUNNY   84  71  65 CALM      30.23S HX  89
ST LOUIS       MOSUNNY   90  72  55 E7        30.21S HX  97
$$


CITY           SKY/WX    TMP DP  RH WIND       PRES   REMARKS
TERRE HAUTE    SUNNY     86  69  56 CALM      30.23F HX  90
EVANSVILLE     SUNNY     88  68  51 VRB6      30.20F HX  91
INDIANAPOLIS   MOSUNNY   85  68  56 CALM      30.24S HX  88
LAFAYETTE      SUNNY     83  73  72 S6        30.24S HX  89
MADISON        CLOUDY    78  69  73 CALM      30.27R HX  80
MILWAUKEE      MOSUNNY   81  66  60 E7        30.28R HX  83
$$






USA.gov is the U.S. government's official web portal to all federal, state and local government web resources and services.